Year,Month,Day,Hour,Minute,Value (Times are PST for windgust in km/hr)
2020,02,08,00,00,11.30
2020,02,08,00,01,9.60
2020,02,08,00,02,8.10
2020,02,08,00,03,16.10
2020,02,08,00,04,6.40
2020,02,08,00,05,11.30
2020,02,08,00,06,19.30
2020,02,08,00,07,11.30
2020,02,08,00,08,16.10
2020,02,08,00,09,16.10
2020,02,08,00,10,22.50
2020,02,08,00,11,20.90
2020,02,08,00,12,19.30
2020,02,08,00,13,14.50
2020,02,08,00,14,25.70
2020,02,08,00,15,14.50
2020,02,08,00,16,27.40
2020,02,08,00,17,20.90
2020,02,08,00,18,17.70
2020,02,08,00,19,19.30
2020,02,08,00,20,20.90
2020,02,08,00,21,19.30
2020,02,08,00,22,14.50
2020,02,08,00,23,16.10
2020,02,08,00,24,17.70
2020,02,08,00,25,17.70
2020,02,08,00,26,17.70
2020,02,08,00,27,17.70
2020,02,08,00,28,17.70
2020,02,08,00,29,19.30
2020,02,08,00,30,17.70
2020,02,08,00,31,17.70
2020,02,08,00,32,24.20
2020,02,08,00,33,20.90
2020,02,08,00,34,16.10
2020,02,08,00,35,14.50
2020,02,08,00,36,17.70
2020,02,08,00,37,16.10
2020,02,08,00,38,16.10
2020,02,08,00,39,20.90
2020,02,08,00,40,11.30
2020,02,08,00,41,17.70
2020,02,08,00,42,9.60
2020,02,08,00,43,11.30
2020,02,08,00,44,8.10
2020,02,08,00,45,11.30
2020,02,08,00,46,19.30
2020,02,08,00,47,19.30
2020,02,08,00,48,20.90
2020,02,08,00,49,19.30
2020,02,08,00,50,9.60
2020,02,08,00,51,19.30
2020,02,08,00,52,20.90
2020,02,08,00,53,17.70
2020,02,08,00,54,16.10
2020,02,08,00,55,9.60
2020,02,08,00,56,16.10
2020,02,08,00,57,16.10
2020,02,08,00,58,11.30
2020,02,08,00,59,14.50
2020,02,08,01,00,14.50
2020,02,08,01,01,11.30
2020,02,08,01,02,16.10
2020,02,08,01,03,16.10
2020,02,08,01,04,9.60
2020,02,08,01,05,22.50
2020,02,08,01,06,22.50
2020,02,08,01,07,22.50
2020,02,08,01,08,17.70
2020,02,08,01,09,14.50
2020,02,08,01,10,22.50
2020,02,08,01,11,17.70
2020,02,08,01,12,20.90
2020,02,08,01,13,16.10
2020,02,08,01,14,17.70
2020,02,08,01,15,27.40
2020,02,08,01,16,27.40
2020,02,08,01,17,19.30
2020,02,08,01,18,16.10
2020,02,08,01,19,11.30
2020,02,08,01,20,12.90
2020,02,08,01,21,20.90
2020,02,08,01,22,22.50
2020,02,08,01,23,27.40
2020,02,08,01,24,16.10
2020,02,08,01,25,16.10
2020,02,08,01,26,25.70
2020,02,08,01,27,27.40
2020,02,08,01,28,22.50
2020,02,08,01,29,20.90
2020,02,08,01,30,35.40
2020,02,08,01,31,20.90
2020,02,08,01,32,16.10
2020,02,08,01,33,14.50
2020,02,08,01,34,17.70
2020,02,08,01,35,17.70
2020,02,08,01,36,24.20
2020,02,08,01,37,17.70
2020,02,08,01,38,17.70
2020,02,08,01,39,17.70
2020,02,08,01,40,11.30
2020,02,08,01,41,22.50
2020,02,08,01,42,19.30
2020,02,08,01,43,22.50
2020,02,08,01,44,19.30
2020,02,08,01,45,9.60
2020,02,08,01,46,24.20
2020,02,08,01,47,24.20
2020,02,08,01,48,22.50
2020,02,08,01,49,19.30
2020,02,08,01,50,19.30
2020,02,08,01,51,14.50
2020,02,08,01,52,24.20
2020,02,08,01,53,25.70
2020,02,08,01,54,22.50
2020,02,08,01,55,20.90
2020,02,08,01,56,29.00
2020,02,08,01,57,19.30
2020,02,08,01,58,17.70
2020,02,08,01,59,19.30
2020,02,08,02,00,22.50
2020,02,08,02,01,24.20
2020,02,08,02,02,16.10
2020,02,08,02,03,19.30
2020,02,08,02,04,27.40
2020,02,08,02,05,17.70
2020,02,08,02,06,20.90
2020,02,08,02,07,22.50
2020,02,08,02,08,17.70
2020,02,08,02,09,14.50
2020,02,08,02,10,14.50
2020,02,08,02,11,11.30
2020,02,08,02,12,27.40
2020,02,08,02,13,22.50
2020,02,08,02,14,25.70
2020,02,08,02,15,16.10
2020,02,08,02,16,24.20
2020,02,08,02,17,32.20
2020,02,08,02,18,25.70
2020,02,08,02,19,22.50
2020,02,08,02,20,22.50
2020,02,08,02,21,19.30
2020,02,08,02,22,19.30
2020,02,08,02,23,20.90
2020,02,08,02,24,24.20
2020,02,08,02,25,22.50
2020,02,08,02,26,17.70
2020,02,08,02,27,22.50
2020,02,08,02,28,20.90
2020,02,08,02,29,32.20
2020,02,08,02,30,20.90
2020,02,08,02,31,17.70
2020,02,08,02,32,24.20
2020,02,08,02,33,24.20
2020,02,08,02,34,17.70
2020,02,08,02,35,25.70
2020,02,08,02,36,19.30
2020,02,08,02,37,19.30
2020,02,08,02,38,27.40
2020,02,08,02,39,24.20
2020,02,08,02,40,16.10
2020,02,08,02,41,19.30
2020,02,08,02,42,19.30
2020,02,08,02,43,19.30
2020,02,08,02,44,25.70
2020,02,08,02,45,20.90
2020,02,08,02,46,27.40
2020,02,08,02,47,19.30
2020,02,08,02,48,16.10
2020,02,08,02,49,27.40
2020,02,08,02,50,22.50
2020,02,08,02,51,16.10
2020,02,08,02,52,16.10
2020,02,08,02,53,19.30
2020,02,08,02,54,22.50
2020,02,08,02,55,19.30
2020,02,08,02,56,11.30
2020,02,08,02,57,20.90
2020,02,08,02,58,19.30
2020,02,08,02,59,17.70
2020,02,08,03,00,25.70
2020,02,08,03,01,29.00
2020,02,08,03,02,19.30
2020,02,08,03,03,22.50
2020,02,08,03,04,22.50
2020,02,08,03,05,14.50
2020,02,08,03,06,17.70
2020,02,08,03,07,29.00
2020,02,08,03,08,22.50
2020,02,08,03,09,22.50
2020,02,08,03,10,22.50
2020,02,08,03,11,27.40
2020,02,08,03,12,25.70
2020,02,08,03,13,20.90
2020,02,08,03,14,25.70
2020,02,08,03,15,22.50
2020,02,08,03,16,20.90
2020,02,08,03,17,14.50
2020,02,08,03,18,22.50
2020,02,08,03,19,29.00
2020,02,08,03,20,24.20
2020,02,08,03,21,19.30
2020,02,08,03,22,20.90
2020,02,08,03,23,16.10
2020,02,08,03,24,22.50
2020,02,08,03,25,20.90
2020,02,08,03,26,17.70
2020,02,08,03,27,20.90
2020,02,08,03,28,19.30
2020,02,08,03,29,20.90
2020,02,08,03,30,22.50
2020,02,08,03,31,22.50
2020,02,08,03,32,22.50
2020,02,08,03,33,17.70
2020,02,08,03,34,17.70
2020,02,08,03,35,16.10
2020,02,08,03,36,25.70
2020,02,08,03,37,22.50
2020,02,08,03,38,22.50
2020,02,08,03,39,17.70
2020,02,08,03,40,22.50
2020,02,08,03,41,24.20
2020,02,08,03,42,27.40
2020,02,08,03,43,27.40
2020,02,08,03,44,22.50
2020,02,08,03,45,25.70
2020,02,08,03,46,24.20
2020,02,08,03,47,17.70
2020,02,08,03,48,12.90
2020,02,08,03,49,11.30
2020,02,08,03,50,17.70
2020,02,08,03,51,14.50
2020,02,08,03,52,14.50
2020,02,08,03,53,14.50
2020,02,08,03,54,14.50
2020,02,08,03,55,14.50
2020,02,08,03,56,14.50
2020,02,08,03,57,14.50
2020,02,08,03,58,14.50
2020,02,08,03,59,14.50
2020,02,08,04,00,14.50
2020,02,08,08,55,20.90
2020,02,08,08,56,40.20
2020,02,08,08,57,24.20
2020,02,08,08,58,32.20
2020,02,08,08,59,37.00
2020,02,08,09,00,27.40
2020,02,08,09,01,41.80
2020,02,08,09,02,30.60
2020,02,08,09,03,33.80
2020,02,08,09,04,30.60
2020,02,08,09,05,30.60
2020,02,08,09,06,30.60
2020,02,08,09,07,33.80
2020,02,08,09,08,30.60
2020,02,08,09,09,27.40
2020,02,08,09,10,19.30
2020,02,08,09,11,25.70
2020,02,08,09,12,27.40
2020,02,08,09,13,33.80
2020,02,08,09,14,35.40
2020,02,08,09,15,25.70
2020,02,08,09,16,27.40
2020,02,08,09,17,25.70
2020,02,08,09,18,24.20
2020,02,08,09,19,38.60
2020,02,08,09,20,45.10
2020,02,08,09,21,45.10
2020,02,08,09,22,30.60
2020,02,08,09,23,25.70
2020,02,08,09,24,25.70
2020,02,08,09,25,37.00
2020,02,08,09,26,30.60
2020,02,08,09,27,30.60
2020,02,08,09,28,20.90
2020,02,08,09,29,24.20
2020,02,08,09,30,19.30
2020,02,08,09,31,25.70
2020,02,08,09,32,29.00
2020,02,08,09,33,20.90
2020,02,08,09,34,38.60
2020,02,08,09,35,38.60
2020,02,08,09,36,35.40
2020,02,08,09,37,35.40
2020,02,08,09,38,38.60
2020,02,08,09,39,32.20
2020,02,08,09,40,32.20
2020,02,08,09,41,43.50
2020,02,08,09,42,29.00
2020,02,08,09,43,37.00
2020,02,08,09,44,40.20
2020,02,08,09,45,33.80
2020,02,08,09,46,25.70
2020,02,08,09,47,32.20
2020,02,08,09,48,37.00
2020,02,08,09,49,25.70
2020,02,08,09,50,41.80
2020,02,08,09,51,33.80
2020,02,08,09,52,30.60
2020,02,08,09,53,43.50
2020,02,08,09,54,43.50
2020,02,08,09,55,30.60
2020,02,08,09,56,35.40
2020,02,08,09,57,25.70
2020,02,08,09,58,33.80
2020,02,08,09,59,37.00
2020,02,08,10,00,30.60
2020,02,08,10,01,27.40
2020,02,08,10,02,45.10
2020,02,08,10,03,43.50
2020,02,08,10,04,32.20
2020,02,08,10,05,40.20
2020,02,08,10,06,38.60
2020,02,08,10,07,53.10
2020,02,08,10,08,35.40
2020,02,08,10,09,30.60
2020,02,08,10,10,40.20
2020,02,08,10,11,32.20
2020,02,08,10,12,29.00
2020,02,08,10,13,38.60
2020,02,08,10,14,32.20
2020,02,08,10,15,33.80
2020,02,08,10,16,33.80
2020,02,08,10,17,24.20
2020,02,08,10,18,27.40
2020,02,08,10,19,30.60
2020,02,08,10,20,27.40
2020,02,08,10,21,37.00
2020,02,08,10,22,30.60
2020,02,08,10,23,32.20
2020,02,08,10,24,38.60
2020,02,08,10,25,27.40
2020,02,08,10,26,43.50
2020,02,08,10,27,29.00
2020,02,08,10,28,35.40
2020,02,08,10,29,30.60
2020,02,08,10,30,24.20
2020,02,08,10,31,40.20
2020,02,08,10,32,30.60
2020,02,08,10,33,40.20
2020,02,08,10,34,37.00
2020,02,08,10,35,38.60
2020,02,08,10,36,29.00
2020,02,08,10,37,27.40
2020,02,08,10,38,30.60
2020,02,08,10,39,41.80
2020,02,08,10,40,29.00
2020,02,08,10,41,38.60
2020,02,08,10,42,38.60
2020,02,08,10,43,40.20
2020,02,08,10,44,27.40
2020,02,08,10,45,29.00
2020,02,08,10,46,32.20
2020,02,08,10,47,27.40
2020,02,08,10,48,25.70
2020,02,08,10,49,29.00
2020,02,08,10,50,37.00
2020,02,08,10,51,38.60
2020,02,08,10,52,41.80
2020,02,08,10,53,30.60
2020,02,08,10,54,27.40
2020,02,08,10,55,37.00
2020,02,08,10,56,25.70
2020,02,08,10,57,20.90
2020,02,08,10,58,35.40
2020,02,08,10,59,38.60
2020,02,08,11,00,33.80
2020,02,08,11,01,41.80
2020,02,08,11,02,35.40
2020,02,08,11,03,35.40
2020,02,08,11,04,32.20
2020,02,08,11,05,37.00
2020,02,08,11,06,32.20
2020,02,08,11,07,38.60
2020,02,08,11,08,43.50
2020,02,08,11,09,32.20
2020,02,08,11,10,25.70
2020,02,08,11,11,38.60
2020,02,08,11,12,48.30
2020,02,08,11,13,32.20
2020,02,08,11,14,25.70
2020,02,08,11,15,41.80
2020,02,08,11,16,51.50
2020,02,08,11,17,32.20
2020,02,08,11,18,35.40
2020,02,08,11,19,32.20
2020,02,08,11,20,32.20
2020,02,08,11,21,32.20
2020,02,08,11,22,35.40
2020,02,08,11,23,38.60
2020,02,08,11,24,35.40
2020,02,08,11,25,38.60
2020,02,08,11,26,46.70
2020,02,08,11,27,27.40
2020,02,08,11,28,37.00
2020,02,08,11,29,29.00
2020,02,08,11,30,35.40
2020,02,08,11,31,30.60
2020,02,08,11,32,48.30
2020,02,08,11,33,33.80
2020,02,08,11,34,32.20
2020,02,08,11,35,30.60
2020,02,08,11,36,32.20
2020,02,08,11,37,33.80
2020,02,08,11,38,37.00
2020,02,08,11,39,33.80
2020,02,08,11,40,33.80
2020,02,08,11,41,43.50
2020,02,08,11,42,53.10
2020,02,08,11,43,30.60
2020,02,08,11,44,27.40
2020,02,08,11,45,24.20
2020,02,08,11,46,48.30
2020,02,08,11,47,45.10
2020,02,08,11,48,45.10
2020,02,08,11,49,37.00
2020,02,08,11,50,38.60
2020,02,08,11,51,30.60
2020,02,08,11,52,35.40
2020,02,08,11,53,40.20
2020,02,08,11,54,32.20
2020,02,08,11,55,27.40
2020,02,08,11,56,46.70
2020,02,08,11,57,35.40
2020,02,08,11,58,32.20
2020,02,08,11,59,35.40
2020,02,08,12,00,29.00
2020,02,08,12,01,41.80
2020,02,08,12,02,33.80
2020,02,08,12,03,32.20
2020,02,08,12,04,32.20
2020,02,08,12,05,30.60
2020,02,08,12,06,29.00
2020,02,08,12,07,22.50
2020,02,08,12,08,20.90
2020,02,08,12,09,35.40
2020,02,08,12,10,30.60
2020,02,08,12,11,35.40
2020,02,08,12,12,37.00
2020,02,08,12,13,41.80
2020,02,08,12,14,35.40
2020,02,08,12,15,33.80
2020,02,08,12,16,29.00
2020,02,08,12,17,22.50
2020,02,08,12,18,22.50
2020,02,08,12,19,29.00
2020,02,08,12,20,38.60
2020,02,08,12,21,33.80
2020,02,08,12,22,40.20
2020,02,08,12,23,32.20
2020,02,08,12,24,33.80
2020,02,08,12,25,29.00
2020,02,08,12,26,33.80
2020,02,08,12,27,30.60
2020,02,08,12,28,30.60
2020,02,08,12,29,32.20
2020,02,08,12,30,35.40
2020,02,08,12,31,38.60
2020,02,08,12,32,32.20
2020,02,08,12,33,43.50
2020,02,08,12,34,27.40
2020,02,08,12,35,30.60
2020,02,08,12,36,37.00
2020,02,08,12,37,37.00
2020,02,08,12,38,41.80
2020,02,08,12,39,35.40
2020,02,08,12,40,25.70
2020,02,08,12,41,35.40
2020,02,08,12,42,37.00
2020,02,08,12,43,41.80
2020,02,08,12,44,35.40
2020,02,08,12,45,30.60
2020,02,08,12,46,32.20
2020,02,08,12,47,29.00
2020,02,08,12,48,33.80
2020,02,08,12,49,38.60
2020,02,08,12,50,32.20
2020,02,08,12,51,32.20
2020,02,08,12,52,32.20
2020,02,08,12,53,25.70
2020,02,08,12,54,40.20
2020,02,08,12,55,27.40
2020,02,08,12,56,30.60
2020,02,08,12,57,29.00
2020,02,08,12,58,25.70
2020,02,08,12,59,38.60
2020,02,08,13,00,27.40
2020,02,08,13,01,30.60
2020,02,08,13,02,25.70
2020,02,08,13,03,29.00
2020,02,08,13,04,33.80
2020,02,08,13,05,20.90
2020,02,08,13,06,25.70
2020,02,08,13,07,45.10
2020,02,08,13,08,45.10
2020,02,08,13,09,27.40
2020,02,08,13,10,29.00
2020,02,08,13,11,43.50
2020,02,08,13,12,29.00
2020,02,08,13,13,43.50
2020,02,08,13,14,45.10
2020,02,08,13,15,35.40
2020,02,08,13,16,35.40
2020,02,08,13,17,40.20
2020,02,08,13,18,41.80
2020,02,08,13,19,25.70
2020,02,08,13,20,27.40
2020,02,08,13,21,38.60
2020,02,08,13,22,37.00
2020,02,08,13,23,27.40
2020,02,08,13,24,37.00
2020,02,08,13,25,20.90
2020,02,08,13,26,41.80
2020,02,08,13,27,41.80
2020,02,08,13,28,27.40
2020,02,08,13,29,38.60
2020,02,08,13,30,43.50
2020,02,08,13,31,29.00
2020,02,08,13,32,29.00
2020,02,08,13,33,33.80
2020,02,08,13,34,30.60
2020,02,08,13,35,32.20
2020,02,08,13,36,24.20
2020,02,08,13,37,38.60
2020,02,08,13,38,33.80
2020,02,08,13,39,30.60
2020,02,08,13,40,32.20
2020,02,08,13,41,38.60
2020,02,08,13,42,35.40
2020,02,08,13,43,30.60
2020,02,08,13,44,30.60
2020,02,08,13,45,20.90
2020,02,08,13,46,33.80
2020,02,08,13,47,33.80
2020,02,08,13,48,37.00
2020,02,08,13,49,40.20
2020,02,08,13,50,35.40
2020,02,08,13,51,29.00
2020,02,08,13,52,24.20
2020,02,08,13,53,19.30
2020,02,08,13,54,20.90
2020,02,08,13,55,33.80
2020,02,08,13,56,29.00
2020,02,08,13,57,35.40
2020,02,08,13,58,38.60
2020,02,08,13,59,38.60
2020,02,08,14,00,38.60
2020,02,08,14,01,43.50
2020,02,08,14,02,38.60
2020,02,08,14,03,35.40
2020,02,08,14,04,32.20
2020,02,08,14,05,40.20
2020,02,08,14,06,40.20
2020,02,08,14,07,41.80
2020,02,08,14,08,43.50
2020,02,08,14,09,32.20
2020,02,08,14,10,32.20
2020,02,08,14,11,33.80
2020,02,08,14,12,20.90
2020,02,08,14,13,29.00
2020,02,08,14,14,27.40
2020,02,08,14,15,30.60
2020,02,08,14,16,29.00
2020,02,08,14,17,33.80
2020,02,08,14,18,27.40
2020,02,08,14,19,25.70
2020,02,08,14,20,17.70
2020,02,08,14,21,20.90
2020,02,08,14,22,32.20
2020,02,08,14,23,25.70
2020,02,08,14,24,37.00
2020,02,08,14,25,37.00
2020,02,08,14,26,24.20
2020,02,08,14,27,32.20
2020,02,08,14,28,27.40
2020,02,08,14,29,32.20
2020,02,08,14,30,33.80
2020,02,08,14,31,29.00
2020,02,08,14,32,40.20
2020,02,08,14,33,30.60
2020,02,08,14,34,20.90
2020,02,08,14,35,22.50
2020,02,08,14,36,27.40
2020,02,08,14,37,19.30
2020,02,08,14,38,25.70
2020,02,08,14,39,27.40
2020,02,08,14,40,22.50
2020,02,08,14,41,25.70
2020,02,08,14,42,30.60
2020,02,08,14,43,29.00
2020,02,08,14,44,22.50
2020,02,08,14,45,17.70
2020,02,08,14,46,29.00
2020,02,08,14,47,32.20
2020,02,08,14,48,19.30
2020,02,08,14,49,27.40
2020,02,08,14,50,35.40
2020,02,08,14,51,25.70
2020,02,08,14,52,35.40
2020,02,08,14,53,20.90
2020,02,08,14,54,29.00
2020,02,08,14,55,24.20
2020,02,08,14,56,35.40
2020,02,08,14,57,25.70
2020,02,08,14,58,25.70
2020,02,08,14,59,24.20
2020,02,08,15,00,33.80
2020,02,08,15,01,35.40
2020,02,08,15,02,25.70
2020,02,08,15,03,17.70
2020,02,08,15,04,14.50
2020,02,08,15,05,17.70
2020,02,08,15,06,19.30
2020,02,08,15,07,20.90
2020,02,08,15,08,24.20
2020,02,08,15,09,22.50
2020,02,08,15,10,37.00
2020,02,08,15,11,33.80
2020,02,08,15,12,27.40
2020,02,08,15,13,25.70
2020,02,08,15,14,20.90
2020,02,08,15,15,24.20
2020,02,08,15,16,20.90
2020,02,08,15,17,24.20
2020,02,08,15,18,32.20
2020,02,08,15,19,25.70
2020,02,08,15,20,22.50
2020,02,08,15,21,20.90
2020,02,08,15,22,20.90
2020,02,08,15,23,20.90
2020,02,08,15,24,22.50
2020,02,08,15,25,27.40
2020,02,08,15,26,22.50
2020,02,08,15,27,25.70
2020,02,08,15,28,30.60
2020,02,08,15,29,22.50
2020,02,08,15,30,22.50
2020,02,08,15,31,30.60
2020,02,08,15,32,33.80
2020,02,08,15,33,32.20
2020,02,08,15,34,30.60
2020,02,08,15,35,27.40
2020,02,08,15,36,27.40
2020,02,08,15,37,30.60
2020,02,08,15,38,35.40
2020,02,08,15,39,29.00
2020,02,08,15,40,27.40
2020,02,08,15,41,25.70
2020,02,08,15,42,20.90
2020,02,08,15,43,25.70
2020,02,08,15,44,30.60
2020,02,08,15,45,25.70
2020,02,08,15,46,16.10
2020,02,08,15,47,27.40
2020,02,08,15,48,29.00
2020,02,08,15,49,30.60
2020,02,08,15,50,16.10
2020,02,08,15,51,20.90
2020,02,08,15,52,19.30
2020,02,08,15,53,25.70
2020,02,08,15,54,29.00
2020,02,08,15,55,24.20
2020,02,08,15,56,22.50
2020,02,08,15,57,19.30
2020,02,08,15,58,27.40
2020,02,08,15,59,16.10
2020,02,08,16,00,24.20
2020,02,08,16,01,17.70
2020,02,08,16,02,30.60
2020,02,08,16,03,32.20
2020,02,08,16,04,25.70
2020,02,08,16,05,17.70
2020,02,08,16,06,29.00
2020,02,08,16,07,29.00
2020,02,08,16,08,19.30
2020,02,08,16,09,20.90
2020,02,08,16,10,20.90
2020,02,08,16,11,22.50
2020,02,08,16,12,19.30
2020,02,08,16,13,19.30
2020,02,08,16,14,22.50
2020,02,08,16,15,14.50
2020,02,08,16,16,16.10
2020,02,08,16,17,19.30
2020,02,08,16,18,22.50
2020,02,08,16,19,22.50
2020,02,08,16,20,20.90
2020,02,08,16,21,16.10
2020,02,08,16,22,25.70
2020,02,08,16,23,20.90
2020,02,08,16,24,24.20
2020,02,08,16,25,25.70
2020,02,08,16,26,27.40
2020,02,08,16,27,24.20
2020,02,08,16,28,29.00
2020,02,08,16,29,30.60
2020,02,08,16,30,25.70
2020,02,08,16,31,29.00
2020,02,08,16,32,20.90
2020,02,08,16,33,22.50
2020,02,08,16,34,33.80
2020,02,08,16,35,20.90
2020,02,08,16,36,29.00
2020,02,08,16,37,27.40
2020,02,08,16,38,29.00
2020,02,08,16,39,29.00
2020,02,08,16,40,25.70
2020,02,08,16,41,24.20
2020,02,08,16,42,32.20
2020,02,08,16,43,32.20
2020,02,08,16,44,37.00
2020,02,08,16,45,27.40
2020,02,08,16,46,32.20
2020,02,08,16,47,25.70
2020,02,08,16,48,25.70
2020,02,08,16,49,24.20
2020,02,08,16,50,29.00
2020,02,08,16,51,22.50
2020,02,08,16,52,27.40
2020,02,08,16,53,29.00
2020,02,08,16,54,29.00
2020,02,08,16,55,29.00
2020,02,08,16,56,24.20
2020,02,08,16,57,25.70
2020,02,08,16,58,25.70
2020,02,08,16,59,22.50
2020,02,08,17,00,37.00
2020,02,08,17,01,35.40
2020,02,08,17,02,33.80
2020,02,08,17,03,29.00
2020,02,08,17,04,22.50
2020,02,08,17,05,24.20
2020,02,08,17,06,29.00
2020,02,08,17,07,29.00
2020,02,08,17,08,25.70
2020,02,08,17,09,24.20
2020,02,08,17,10,27.40
2020,02,08,17,11,25.70
2020,02,08,17,12,32.20
2020,02,08,17,13,32.20
2020,02,08,17,14,30.60
2020,02,08,17,15,35.40
2020,02,08,17,16,25.70
2020,02,08,17,17,32.20
2020,02,08,17,18,29.00
2020,02,08,17,19,35.40
2020,02,08,17,20,20.90
2020,02,08,17,21,24.20
2020,02,08,17,22,24.20
2020,02,08,17,23,32.20
2020,02,08,17,24,35.40
2020,02,08,17,25,30.60
2020,02,08,17,26,27.40
2020,02,08,17,27,20.90
2020,02,08,17,28,33.80
2020,02,08,17,29,33.80
2020,02,08,17,30,27.40
2020,02,08,17,31,29.00
2020,02,08,17,32,32.20
2020,02,08,17,33,29.00
2020,02,08,17,34,33.80
2020,02,08,17,35,29.00
2020,02,08,17,36,35.40
2020,02,08,17,37,35.40
2020,02,08,17,38,37.00
2020,02,08,17,39,27.40
2020,02,08,17,40,33.80
2020,02,08,17,41,32.20
2020,02,08,17,42,37.00
2020,02,08,17,43,35.40
2020,02,08,17,44,38.60
2020,02,08,17,45,27.40
2020,02,08,17,46,32.20
2020,02,08,17,47,24.20
2020,02,08,17,48,27.40
2020,02,08,17,49,32.20
2020,02,08,17,50,33.80
2020,02,08,17,51,20.90
2020,02,08,17,52,33.80
2020,02,08,17,53,29.00
2020,02,08,17,54,30.60
2020,02,08,17,55,24.20
2020,02,08,17,56,22.50
2020,02,08,17,57,33.80
2020,02,08,17,58,33.80
2020,02,08,17,59,20.90
2020,02,08,18,00,25.70
2020,02,08,18,01,25.70
2020,02,08,18,02,20.90
2020,02,08,18,03,32.20
2020,02,08,18,04,20.90
2020,02,08,18,05,25.70
2020,02,08,18,06,37.00
2020,02,08,18,07,24.20
2020,02,08,18,08,25.70
2020,02,08,18,09,19.30
2020,02,08,18,10,29.00
2020,02,08,18,11,22.50
2020,02,08,18,12,22.50
2020,02,08,18,13,32.20
2020,02,08,18,14,25.70
2020,02,08,18,15,33.80
2020,02,08,18,16,27.40
2020,02,08,18,17,33.80
2020,02,08,18,18,29.00
2020,02,08,18,19,38.60
2020,02,08,18,20,24.20
2020,02,08,18,21,33.80
2020,02,08,18,22,30.60
2020,02,08,18,23,20.90
2020,02,08,18,24,25.70
2020,02,08,18,25,24.20
2020,02,08,18,26,29.00
2020,02,08,18,27,25.70
2020,02,08,18,28,20.90
2020,02,08,18,29,32.20
2020,02,08,18,30,24.20
2020,02,08,18,31,22.50
2020,02,08,18,32,24.20
2020,02,08,18,33,17.70
2020,02,08,18,34,24.20
2020,02,08,18,35,24.20
2020,02,08,18,36,20.90
2020,02,08,18,37,19.30
2020,02,08,18,38,24.20
2020,02,08,18,39,32.20
2020,02,08,18,40,27.40
2020,02,08,18,41,27.40
2020,02,08,18,42,19.30
2020,02,08,18,43,30.60
2020,02,08,18,44,27.40
2020,02,08,18,45,27.40
2020,02,08,18,46,24.20
2020,02,08,18,47,24.20
2020,02,08,18,48,19.30
2020,02,08,18,49,24.20
2020,02,08,18,50,30.60
2020,02,08,18,51,24.20
2020,02,08,18,52,24.20
2020,02,08,18,53,24.20
2020,02,08,18,54,29.00
2020,02,08,18,55,19.30
2020,02,08,18,56,25.70
2020,02,08,18,57,27.40
2020,02,08,18,58,25.70
2020,02,08,18,59,29.00
2020,02,08,19,00,19.30
2020,02,08,19,01,32.20
2020,02,08,19,02,24.20
2020,02,08,19,03,22.50
2020,02,08,19,04,25.70
2020,02,08,19,05,24.20
2020,02,08,19,06,17.70
2020,02,08,19,07,20.90
2020,02,08,19,08,24.20
2020,02,08,19,09,17.70
2020,02,08,19,10,16.10
2020,02,08,19,11,29.00
2020,02,08,19,12,30.60
2020,02,08,19,13,25.70
2020,02,08,19,14,24.20
2020,02,08,19,15,25.70
2020,02,08,19,16,29.00
2020,02,08,19,17,22.50
2020,02,08,19,18,14.50
2020,02,08,19,19,22.50
2020,02,08,19,20,8.10
2020,02,08,19,21,20.90
2020,02,08,19,22,17.70
2020,02,08,19,23,22.50
2020,02,08,19,24,24.20
2020,02,08,19,25,20.90
2020,02,08,19,26,17.70
2020,02,08,19,27,20.90
2020,02,08,19,28,22.50
2020,02,08,19,29,17.70
2020,02,08,19,30,19.30
2020,02,08,19,31,16.10
2020,02,08,19,32,20.90
2020,02,08,19,33,17.70
2020,02,08,19,34,20.90
2020,02,08,19,35,22.50
2020,02,08,19,36,19.30
2020,02,08,19,37,20.90
2020,02,08,19,38,11.30
2020,02,08,19,39,16.10
2020,02,08,19,40,19.30
2020,02,08,19,41,17.70
2020,02,08,19,42,22.50
2020,02,08,19,43,25.70
2020,02,08,19,44,17.70
2020,02,08,19,45,22.50
2020,02,08,19,46,20.90
2020,02,08,19,47,20.90
2020,02,08,19,48,29.00
2020,02,08,19,49,20.90
2020,02,08,19,50,33.80
2020,02,08,19,51,35.40
2020,02,08,19,52,33.80
2020,02,08,19,53,27.40
2020,02,08,19,54,16.10
2020,02,08,19,55,12.90
2020,02,08,19,56,20.90
2020,02,08,19,57,20.90
2020,02,08,19,58,29.00
2020,02,08,19,59,19.30
2020,02,08,20,00,22.50
2020,02,08,20,01,19.30
2020,02,08,20,02,25.70
2020,02,08,20,03,30.60
2020,02,08,20,04,22.50
2020,02,08,20,05,22.50
2020,02,08,20,06,30.60
2020,02,08,20,07,16.10
2020,02,08,20,08,20.90
2020,02,08,20,09,24.20
2020,02,08,20,10,19.30
2020,02,08,20,11,19.30
2020,02,08,20,12,20.90
2020,02,08,20,13,22.50
2020,02,08,20,14,22.50
2020,02,08,20,15,22.50
2020,02,08,20,16,17.70
2020,02,08,20,17,20.90
2020,02,08,20,18,30.60
2020,02,08,20,19,17.70
2020,02,08,20,20,35.40
2020,02,08,20,21,33.80
2020,02,08,20,22,22.50
2020,02,08,20,23,19.30
2020,02,08,20,24,17.70
2020,02,08,20,25,25.70
2020,02,08,20,26,25.70
2020,02,08,20,27,17.70
2020,02,08,20,28,22.50
2020,02,08,20,29,25.70
2020,02,08,20,30,24.20
2020,02,08,20,31,24.20
2020,02,08,20,32,16.10
2020,02,08,20,33,27.40
2020,02,08,20,34,24.20
2020,02,08,20,35,14.50
2020,02,08,20,36,22.50
2020,02,08,20,37,16.10
2020,02,08,20,38,22.50
2020,02,08,20,39,27.40
2020,02,08,20,40,27.40
2020,02,08,20,41,25.70
2020,02,08,20,42,19.30
2020,02,08,20,43,20.90
2020,02,08,20,44,19.30
2020,02,08,20,45,17.70
2020,02,08,20,46,24.20
2020,02,08,20,47,19.30
2020,02,08,20,48,22.50
2020,02,08,20,49,20.90
2020,02,08,20,50,25.70
2020,02,08,20,51,16.10
2020,02,08,20,52,14.50
2020,02,08,20,53,14.50
2020,02,08,20,54,17.70
2020,02,08,20,55,25.70
2020,02,08,20,56,19.30
2020,02,08,20,57,24.20
2020,02,08,20,58,22.50
2020,02,08,20,59,11.30
2020,02,08,21,00,19.30
2020,02,08,21,01,11.30
2020,02,08,21,02,9.60
2020,02,08,21,03,22.50
2020,02,08,21,04,14.50
2020,02,08,21,05,11.30
2020,02,08,21,06,12.90
2020,02,08,21,07,20.90
2020,02,08,21,08,16.10
2020,02,08,21,09,6.40
2020,02,08,21,10,14.50
2020,02,08,21,11,17.70
2020,02,08,21,12,22.50
2020,02,08,21,13,16.10
2020,02,08,21,14,16.10
2020,02,08,21,15,8.10
2020,02,08,21,16,20.90
2020,02,08,21,17,20.90
2020,02,08,21,18,16.10
2020,02,08,21,19,16.10
2020,02,08,21,20,19.30
2020,02,08,21,21,16.10
2020,02,08,21,22,24.20
2020,02,08,21,23,16.10
2020,02,08,21,24,8.10
2020,02,08,21,25,14.50
2020,02,08,21,26,19.30
2020,02,08,21,27,17.70
2020,02,08,21,28,22.50
2020,02,08,21,29,19.30
2020,02,08,21,30,17.70
2020,02,08,21,31,20.90
2020,02,08,21,32,22.50
2020,02,08,21,33,17.70
2020,02,08,21,34,17.70
2020,02,08,21,35,19.30
2020,02,08,21,36,17.70
2020,02,08,21,37,20.90
2020,02,08,21,38,29.00
2020,02,08,21,39,16.10
2020,02,08,21,40,20.90
2020,02,08,21,41,17.70
2020,02,08,21,42,20.90
2020,02,08,21,43,16.10
2020,02,08,21,44,9.60
2020,02,08,21,45,11.30
2020,02,08,21,46,9.60
2020,02,08,21,47,22.50
2020,02,08,21,48,19.30
2020,02,08,21,49,19.30
2020,02,08,21,50,19.30
2020,02,08,21,51,19.30
2020,02,08,21,52,11.30
2020,02,08,21,53,16.10
2020,02,08,21,54,25.70
2020,02,08,21,55,20.90
2020,02,08,21,56,16.10
2020,02,08,21,57,16.10
2020,02,08,21,58,16.10
2020,02,08,21,59,14.50
2020,02,08,22,00,20.90
2020,02,08,22,01,32.20
2020,02,08,22,02,19.30
2020,02,08,22,03,20.90
2020,02,08,22,04,22.50
2020,02,08,22,05,19.30
2020,02,08,22,06,22.50
2020,02,08,22,07,16.10
2020,02,08,22,08,22.50
2020,02,08,22,09,22.50
2020,02,08,22,10,24.20
2020,02,08,22,11,20.90
2020,02,08,22,12,11.30
2020,02,08,22,13,9.60
2020,02,08,22,14,14.50